Theta_e
325 325 325 325 325 324 324 324 324 322 321 320 320 319 318 318 317 317 317 316 316 316
323 324 325 326 327 326 326 326 326 324 322 322 321 320 319 317 317 317 317 317 317 316
318 321 323 325 325 326 327 327 326 324 323 323 322 321 320 318 318 317 317 317 317 317
305 308 312 316 319 323 326 327 326 325 324 323 322 322 320 319 319 317 317 318 317 317
300 301 302 304 307 312 316 322 325 325 325 324 324 324 322 321 320 319 318 317 317 317
298 298 299 299 301 304 307 310 315 320 323 324 324 324 323 323 322 321 320 320 319 319
294 296 297 297 298 300 302 303 306 310 315 319 322 323 323 323 323 322 322 322 321 321
293 293 294 294 295 296 297 299 302 305 309 312 315 319 320 321 322 322 321 321 321 320
290 290 291 292 292 293 294 295 297 299 302 304 308 307 305 308 319 320 319 319 320 320
287 287 287 288 289 290 291 293 294 295 297 299 302 302 302 300 312 317 319 319 319 318
283 283 284 285 286 287 289 290 291 292 294 296 298 298 299 299 307 313 316 318 319 317
280 279 281 281 283 284 285 286 288 290 291 291 293 295 296 298 304 307 309 313 317 317
277 278 278 279 280 283 284 285 286 287 289 289 290 293 295 297 299 302 304 307 309 295
275 276 277 279 280 279 280 282 284 286 287 288 289 291 294 296 297 299 300 303 304 299
Wind_Speed
10 7 8 10 9 9 9 11 12 11 14 16 16 14 14 11 12 14 13 17 14 11
5 7 9 12 11 9 11 11 12 11 13 15 15 15 14 12 15 14 14 15 15 13
7 6 6 8 11 12 12 12 12 12 13 14 15 15 16 14 15 15 13 12 15 15
8 8 8 8 9 10 12 12 12 12 13 14 15 15 15 16 16 17 17 16 17 18
8 7 7 7 9 11 11 11 12 12 13 14 15 15 17 17 16 18 19 19 19 20
11 11 11 11 12 12 11 11 11 11 13 13 15 16 16 17 18 18 19 18 18 18
9 10 10 11 11 12 12 12 12 12 13 12 14 16 18 17 18 19 18 18 18 18
11 9 10 10 11 12 12 12 12 13 14 14 14 12 16 17 16 18 18 18 18 18
13 13 12 12 12 12 12 13 13 13 14 15 12 18 19 17 16 17 17 19 19 19
13 15 15 15 15 14 14 13 14 14 13 15 16 18 19 18 14 17 20 20 19 17
15 18 17 17 16 16 15 15 15 16 16 17 16 20 19 17 16 18 21 21 22 20
19 21 20 20 20 17 17 17 17 16 18 17 21 23 22 16 14 16 20 20 21 20
19 19 21 21 21 17 16 19 16 21 18 20 22 26 24 18 12 17 15 17 19 18
17 19 19 20 18 21 21 21 20 20 21 21 20 23 26 21 14 15 14 14 13 11
Wind_Direction
237 235 237 243 232 236 234 236 232 219 221 225 226 225 222 224 226 223 225 228 224 228
240 236 244 247 246 242 240 241 242 227 221 226 226 224 220 223 227 224 225 229 226 223
340 320 280 267 266 258 256 250 245 236 229 228 226 225 222 224 231 227 227 227 227 227
2 350 343 332 314 298 280 264 254 243 239 236 233 228 228 227 228 226 229 225 225 229
2 352 349 337 325 321 310 301 285 262 256 251 247 238 233 234 231 231 231 229 226 228
357 354 348 341 334 331 325 316 301 290 272 263 261 257 244 239 240 239 238 237 235 233
345 338 334 332 329 328 323 316 310 303 294 287 274 263 259 245 246 245 244 242 239 239
330 325 327 327 325 323 319 312 304 298 294 289 278 267 262 257 250 251 250 245 241 236
329 332 328 323 319 313 306 304 302 300 292 287 278 269 262 253 259 256 250 249 245 238
331 330 326 320 315 310 303 299 293 288 282 276 273 267 261 252 258 260 254 249 245 239
334 325 321 316 311 309 304 301 296 291 286 285 284 282 277 268 262 259 257 253 250 242
331 322 319 314 311 309 303 299 294 287 284 278 279 278 275 270 270 261 258 256 251 245
321 316 312 308 305 304 300 295 293 288 279 274 273 273 270 266 264 262 258 256 254 230
316 312 305 304 308 303 296 289 287 287 284 278 270 274 267 259 254 255 258 252 248 232